Location: Mentone
(34.5413°N, 85.5351°W)
Time: 01:31:15
(UTC-05:00)

Okean O Rocket - Visible Passes

Search period start: 27 May 2016 00:00
Search period end: 06 June 2016 00:00
Orbit: 624 x 645 km, 98.1° (Epoch: 25 May)

Date Brightness Start Highest point End Pass type
(mag) Time Alt. Az. Time Alt. Az. Time Alt. Az.
27 May 1.7 04:22:12 10° N 04:26:35 61° WNW 04:30:23 13° SSW visible
28 May 4.0 03:08:52 10° NE 03:11:48 17° E 03:14:43 10° SE visible
28 May 2.4 04:44:15 10° N 04:48:15 34° WNW 04:52:11 10° SW visible
29 May 3.2 03:29:47 10° NE 03:33:42 30° E 03:36:59 13° SSE visible
30 May 2.2 03:51:10 10° NNE 03:55:31 55° E 03:59:01 15° S visible
31 May 1.5 04:12:51 10° N 04:17:16 80° WNW 04:21:02 14° SSW visible
01 Jun 4.2 03:00:17 10° ENE 03:02:24 13° E 03:04:31 10° ESE visible
01 Jun 2.1 04:34:46 10° N 04:38:58 43° WNW 04:43:04 10° SW visible
02 Jun 3.6 03:20:46 10° NE 03:24:19 24° E 03:27:38 11° SSE visible
02 Jun 2.9 04:56:59 10° NNW 05:00:35 25° WNW 05:04:09 10° SW visible
03 Jun 2.6 03:41:59 10° NNE 03:46:10 42° E 03:49:39 14° SSE visible
04 Jun 1.7 04:03:32 10° NNE 04:07:58 79° ESE 04:11:40 14° S visible
05 Jun 1.8 04:25:21 10° N 04:29:40 57° WNW 04:33:42 11° SSW visible
